TimeEDT,TemperatureF,Dew PointF,Humidity,Sea Level PressureIn,VisibilityMPH,Wind Direction,Wind SpeedMPH,Gust SpeedMPH,PrecipitationIn,Events,Conditions,WindDirDegrees,DateUTC
12:10 AM,62.6,57.2,82,30.05,10.0,SW,4.6,-,N/A,,Mostly Cloudy,230,2012-10-05 04:10:00
12:23 AM,62.6,57.2,82,30.05,10.0,Variable,4.6,-,N/A,,Scattered Clouds,0,2012-10-05 04:23:00
12:52 AM,62.1,57.0,84,30.06,9.0,SSE,4.6,-,N/A,,Partly Cloudy,160,2012-10-05 04:52:00
1:39 AM,57.2,55.4,94,30.05,1.8,Calm,Calm,-,N/A,,Partly Cloudy,0,2012-10-05 05:39:00
1:52 AM,57.0,54.0,89,30.06,1.0,South,3.5,-,N/A,,Mist,170,2012-10-05 05:52:00
1:55 AM,57.2,53.6,88,30.04,0.8,SSE,3.5,-,N/A,,Mist,160,2012-10-05 05:55:00
2:01 AM,57.2,55.4,94,30.04,1.2,Calm,Calm,-,N/A,,Partly Cloudy,0,2012-10-05 06:01:00
2:03 AM,57.2,53.6,88,30.04,2.0,Calm,Calm,-,N/A,,Partly Cloudy,0,2012-10-05 06:03:00
2:13 AM,57.2,53.6,88,30.04,1.2,Calm,Calm,-,N/A,,Partly Cloudy,0,2012-10-05 06:13:00
2:15 AM,57.2,53.6,88,30.04,0.8,Calm,Calm,-,N/A,,Mist,0,2012-10-05 06:15:00
2:37 AM,57.2,53.6,88,30.04,1.2,South,4.6,-,N/A,,Mostly Cloudy,180,2012-10-05 06:37:00
2:50 AM,59.0,55.4,88,30.04,0.8,SSW,3.5,-,N/A,,Overcast,210,2012-10-05 06:50:00
2:52 AM,59.0,55.9,90,30.05,0.8,SSW,3.5,-,N/A,,Overcast,210,2012-10-05 06:52:00
4:52 AM,57.0,55.0,93,30.05,0.2,Calm,Calm,-,N/A,Fog,Fog,0,2012-10-05 08:52:00
5:52 AM,55.9,53.1,90,30.05,0.5,South,3.5,-,0.01,Fog,Fog,190,2012-10-05 09:52:00
6:30 AM,55.4,53.6,94,30.04,1.0,Calm,Calm,-,N/A,,Mist,0,2012-10-05 10:30:00
6:38 AM,55.4,53.6,94,30.04,0.8,Calm,Calm,-,N/A,,Mist,0,2012-10-05 10:38:00
6:52 AM,55.9,53.1,90,30.05,0.5,Calm,Calm,-,N/A,Fog,Fog,0,2012-10-05 10:52:00
7:12 AM,55.4,51.8,88,30.04,1.2,Calm,Calm,-,N/A,,Mostly Cloudy,0,2012-10-05 11:12:00
7:15 AM,55.4,51.8,88,30.04,2.5,Calm,Calm,-,N/A,,Mostly Cloudy,0,2012-10-05 11:15:00
7:23 AM,55.4,51.8,88,30.04,4.0,South,3.5,-,N/A,,Mostly Cloudy,180,2012-10-05 11:23:00
7:33 AM,55.4,51.8,88,30.04,2.0,South,3.5,-,N/A,,Mostly Cloudy,190,2012-10-05 11:33:00
7:39 AM,55.4,51.8,88,30.04,3.0,Calm,Calm,-,N/A,,Scattered Clouds,0,2012-10-05 11:39:00
7:52 AM,55.9,53.1,90,30.05,10.0,WSW,3.5,-,N/A,,Partly Cloudy,240,2012-10-05 11:52:00
8:52 AM,57.9,54.0,87,30.05,9.0,SSE,6.9,-,N/A,,Partly Cloudy,160,2012-10-05 12:52:00
9:52 AM,62.1,55.0,78,30.05,10.0,SW,4.6,-,N/A,,Clear,220,2012-10-05 13:52:00
11:52 AM,70.0,53.1,55,30.04,10.0,West,5.8,-,N/A,,Clear,270,2012-10-05 15:52:00
1:52 PM,73.9,50.0,43,29.99,10.0,West,5.8,-,N/A,,Clear,280,2012-10-05 17:52:00
3:52 PM,75.0,52.0,44,29.96,10.0,WSW,5.8,-,N/A,,Clear,240,2012-10-05 19:52:00
4:52 PM,73.9,53.1,48,29.96,10.0,SSW,3.5,-,N/A,,Clear,210,2012-10-05 20:52:00
5:52 PM,71.1,55.9,59,29.96,10.0,Calm,Calm,-,N/A,,Clear,0,2012-10-05 21:52:00
6:52 PM,64.0,57.0,78,29.97,10.0,Calm,Calm,-,N/A,,Clear,0,2012-10-05 22:52:00
7:52 PM,61.0,55.9,83,29.98,8.0,Calm,Calm,-,N/A,,Clear,0,2012-10-05 23:52:00
8:52 PM,60.1,55.0,83,29.98,7.0,Calm,Calm,-,N/A,,Clear,0,2012-10-06 00:52:00
9:52 PM,57.9,54.0,87,29.97,6.0,Calm,Calm,-,N/A,,Clear,0,2012-10-06 01:52:00
10:52 PM,59.0,54.0,83,29.96,7.0,Calm,Calm,-,N/A,,Overcast,0,2012-10-06 02:52:00
11:52 PM,59.0,55.0,87,29.94,8.0,South,3.5,-,N/A,,Overcast,180,2012-10-06 03:52:00